Погода в Атюрьево

Россия / Республика Мордовия     54°19′14″N   43°20′28″E
темп.,
°C
ветер,
м/с
пор.,
м/с
влажн.,
%
обл.,
%
осадки,
мм/ч
давл.,
гПа
погр.,
м
19 апреля, пн
пн1900:00+7всв51272100 0.0 1021308
03:00+5всв61282100 0.0 1021343
06:00+5всв61178100 0.1 1021399
09:00+7в81263100 0.1 1021718
12:00+10в91156100 0.0 10201283
15:00+10в81052100 0.0 10211550
18:00+8в71054100 0.0 10221279
21:00+7в7136396 0.0 1022765
20 апреля, вт
вт2000:00+5в71370100 0.0 1023660
03:00+5в61272100 0.0 1023696
06:00+4в71370100 0.1 1022741
09:00+5вюв81474100 0.1 1022872
12:00+4вюв81578100 0.3 1022830
15:00+4вюв91681100 0.8 1021931
18:00+5вюв91877100 0.6 1019930
21:00+6вюв111976100 1.6 1015988
21 апреля, ср
ср2100:00+5вюв142487100 2.8 1011950
03:00+5вюв112189100 6.8 1010957
06:00+6юв122190100 0.1 1008944
09:00+6ююв112088100 0.7 1008949
12:00+7ююз61192100 0.8 1009766
15:00+10ююз7107383 0.9 10121163
18:00+9ююз597935 0.1 1014764
21:00+6ююз239296 0.2 101639
22 апреля, чт
чт2200:00+7ююз2291100 0.1 101638
03:00+7ююв2289100 0.2 101740
06:00+7ююз2390100 0.0 101873
09:00+11ююз566612 0.5 1018945
12:00+13юз795745 0.9 10191749
15:00+13зюз695549 2.1 10191711
18:00+11ююз36665 0.1 1020374
21:00+8ююз33756 0.1 102143
23 апреля, пт
пт2300:00+7ююз358326 0.0 102284
03:00+7ю368270 0.0 1022105
06:00+7ю378038 0.0 1023137
09:00+13ююз586121 0.0 1023569
12:00+16ююз564975 0.0 10221569
15:00+15ююз465685 0.3 1021781
18:00+14ююз476183 0.6 1021270
21:00+10ю377466 0.6 1021118